Regional Weather Roundup
Issued by NWS

Home | Current Version | Previous Version | Text Only | Print | Product List | Glossary On
Versions: 1 2 3 4 5 6 7 8 9 10 11 12 13 14 15 16 17 18 19 20 21 22 23 24 25 26 27 28 29 30 31 32 33 34 35 36 37 38 39 40 41 42 43 44 45 46 47 48 49 50
000
ASCA44 KEWX 221820
RWRMX

LATIN AMERICA AND CARIBBEAN REGIONAL WEATHER ROUNDUP
NATIONAL WEATHER SERVICE AUSTIN/SAN ANTONIO TX
1200 PM CST SUN JAN 22 2017

NOTE: "FAIR" INDICATED FEW OR NO CLOUDS BELOW 12,000 FEET WITH NO
SIGNIFICANT WEATHER AND/OR OBSTRUCTIONS TO VISIBILITY.

BAJA CALIFORNIA

CITY           SKY/WX    TMP DP  RH WIND       PRES   REMARKS
LORETO         SUNNY     66  54  63 CALM      30.17S
LA PAZ         MOSUNNY   68  55  64 N12       30.17S
MEXICALI       CLOUDY    57  46  67 SE9       30.15S
S.J. DEL CABO  SUNNY     73  48  40 N13       30.14F
TIJUANA        CLOUDY    55  43  62 CALM      30.21R

NORTHWESTERN MEXICO

CITY           SKY/WX    TMP DP  RH WIND       PRES   REMARKS
CULIACAN       SUNNY     72  50  46 NW3       30.09F
DURANGO        SUNNY     61  18  18 CALM      30.29F
GUAYMAS        SUNNY     68  52  56 CALM      30.13F
HERMOSILLO     MOSUNNY   64  45  48 SE6       30.21F
CD. JUAREZ     SUNNY     46  36  66 NW17      30.15S WCI  39
LOS MOCHIS     SUNNY     70  54  56 N14       30.13F
OBREGON        SUNNY     66  54  63 W5        30.13F

NORTHEASTERN MEXICO

CITY           SKY/WX    TMP DP  RH WIND       PRES   REMARKS
CHIHUAHUA      SUNNY     50  28  43 CALM      30.26R
MATAMOROS      SUNNY     77  37  24 NW18      29.88F
MONCLOVA         N/A    N/A N/A N/A MISG        N/A
MONTERREY      SUNNY     82  21  10 NW20      29.92F
NUEVO LAREDO   SUNNY     75  14   9 NW16      29.94S
PIEDRAS NEGRAS SUNNY     68  41  37 NW23G35   29.98R
REYNOSA        SUNNY     77  23  13 NW23G35   29.88F
SALTILLO       SUNNY     70  41  35 W13       30.23R
TORREON        SUNNY     66  32  28 CALM      30.19F
CD. VICTORIA   SUNNY     75  36  23 CALM      29.94F

WESTERN MEXICO

CITY           SKY/WX    TMP DP  RH WIND       PRES   REMARKS
AGUASCALIENTES SUNNY     64  10  12 CALM      30.28F
COLIMA         SUNNY     79  43  27 CALM      30.10F
DEL BAJIO      SUNNY     66  19  16 W8        30.31F
GUADALAJARA    SUNNY     68  18  14 CALM      30.23F
MANZANILLO     SUNNY     77  68  73 SW12      29.91F
MAZATLAN       SUNNY     75  52  43 CALM      30.07F
P. VALLARTA    SUNNY     90  55  31 SW5       30.03F
URUAPAN        SUNNY     75  23  14 NW12      30.19F
ZACATECAS      SUNNY     64  16  15 N15G26    30.29F

CENTRAL MEXICO

CITY           SKY/WX    TMP DP  RH WIND       PRES   REMARKS
CUERNAVACA     SUNNY     75  39  27 CALM      30.14F
MEXICO CITY    SUNNY     66  25  20 MISG      30.34F
MORELIA        SUNNY     66  27  22 CALM      30.28F
POZA RICA      SUNNY     82  66  57 NE9       29.96R
PUEBLA         SUNNY     72  10   9 NE13G24   30.30F
QUERETARO      SUNNY     68  23  18 W12       30.31F
S. LUIS POTOSI SUNNY     70   0   6 NW16      30.22F
TAMPICO        SUNNY     75  52  43 NE23G35   29.91F
TOLUCA         SUNNY     63  19  19 N8        30.39F

SOUTHERN MEXICO

CITY           SKY/WX    TMP DP  RH WIND       PRES   REMARKS
ACAPULCO       SUNNY     81  68  65 W13       29.91F
B. DE HUATULCO SUNNY     88  73  62 W17       29.92F HX  96
OAXACA         SUNNY     81  25  12 N13       30.14F
P. ESCONDIDO   SUNNY     81  72  74 W23       29.97F
VERACRUZ       SUNNY     86  72  62 NE12      29.85F HX  92
ZIHUATANEJO    MOSUNNY   84  70  61 SW9       29.93F

YUCATAN PENINSULA

CITY           SKY/WX    TMP DP  RH WIND       PRES   REMARKS
CAMPECHE       SUNNY     91  72  52 NW17      29.75F HX  98
CANCUN         PTSUNNY   86  73  66 S9G22     29.77F HX  93
CHETUMAL       SUNNY     86  75  70 SE8       29.77F HX  95
CD. DEL CARMEN SUNNY     84  70  61 N7        29.79F
COZUMEL        MOSUNNY   86  75  70 S9        29.77F HX  95
MERIDA         SUNNY     93  68  43 SW12      29.75F HX  97
MINATITLAN     SUNNY     90  68  48 S23       29.82F HX  93
TAPACHULA      PTSUNNY   88  70  55 W8        29.92F HX  92
TUX. GUTIERREZ MOSUNNY   82  61  47 E6G20     29.97F
VILLAHERMOSA   SUNNY     91  66  43 W8        29.81F HX  94

CENTRAL AMERICA

CITY           SKY/WX    TMP DP  RH WIND       PRES   REMARKS
BELIZE CITY      N/A     90  73  58 NW2       29.76F HX  98
MANAGUA        PTCLDY    84  72  65 NW12      29.89F

CARIBBEAN

CITY           SKY/WX    TMP DP  RH WIND       PRES   REMARKS
ARUBA          MOSUNNY   86  70  58 E14       29.92F HX  90
CURACAO        MOSUNNY   82  72  69 E9        29.94F
KINGSTON       MOSUNNY   84  70  61 S8        29.92F
NASSAU         MOSUNNY   81  70  69 S14       29.85F
SAN JUAN       MOSUNNY   81  66  61 NE9       29.96F
SANTO DOMINGO  MOSUNNY   82  64  54 SE9       29.92F
ST. CROIX      MOSUNNY   81  63  54 E8        29.96
ST. KITTS      MOSUNNY   81  64  57 E8        29.94F
ST. MAARTEN    PTSUNNY   81  64  57 VRB2      29.94F
ST. THOMAS     MOSUNNY   79  64  61 NE9       29.95

$$





USA.gov is the U.S. government's official web portal to all federal, state and local government web resources and services.